Location: Ca�n Batista
(41.4099°N, 1.7752°E)
Time: 13:54:49
(UTC+00:00)

Cosmos 1066 Rocket - Pass Details

Date: 03 March 2021
Orbit: 799 x 894 km, 81.2° (Epoch: 22 April)

Event Time Altitude Azimuth Distance (km) Brightness Sun altitude
Rises 19:36:46 0° 354° (N) 3,445 7.6 -21.5°
Reaches altitude 10° 19:39:15 10° 359° (N) 2,518 6.8 -21.9°
Maximum altitude 19:44:52 55° 77° (ENE) 1,049 4.3 -23.0°
Enters shadow 19:45:35 52° 105° (ESE) 1,090 4.3 -23.1°
